Regional Weather Roundup
Issued by NWS

Home | Current Version | Previous Version | Text Only | Print | Product List | Glossary Off
Versions: 1 2 3 4 5 6 7 8 9 10 11 12 13 14 15 16 17 18 19 20 21 22 23 24 25 26 27 28 29 30 31 32 33 34 35 36 37 38 39 40 41 42 43 44 45 46 47 48 49 50

000
ASUS43 KDMX 271403
RWRIA

WEATHER ROUNDUP FOR IOWA
NATIONAL WEATHER SERVICE DES MOINES IA
900 AM CDT TUE SEP 27 2016

NOTE: "FAIR" INDICATES FEW OR NO CLOUDS BELOW 12,000 FEET WITH NO
SIGNIFICANT WEATHER AND/OR OBSTRUCTIONS TO VISIBILITY.

* - THESE STATIONS ARE NOT NWS STATIONS...THUS NOT UNDER NWS
QUALITY CONTROL.  THEY ALSO DO NOT REPORT WEATHER SUCH
AS PRECIPITATION OR FOG.

IAZ001>003-012>014-020>022-031>034-043>046-271500-
   NORTHWEST IOWA

CITY           SKY/WX    TMP DP  RH WIND       PRES   REMARKS
CARROLL *      SUNNY     55  43  62 W8        29.99F
CHEROKEE *     SUNNY     51  43  74 W3        30.00S
DENISON *      SUNNY     50  46  87 SW5       30.00S
LE MARS *      SUNNY     52  43  71 W7        30.02S
ORANGE CITY *  SUNNY     50  43  76 W5        30.00S
SHELDON *      SUNNY     50  41  71 W6        29.98S
SIOUX CITY     SUNNY     54  46  74 CALM      30.03S
SPENCER        SUNNY     50  40  68 W10       29.97F
STORM LAKE *   SUNNY     52  41  66 W9        29.99F
$$

IAZ055>058-069>071-079>083-090>094-271500-
   SOUTHWEST IOWA

CITY           SKY/WX    TMP DP  RH WIND       PRES   REMARKS
ATLANTIC *     SUNNY     54  48  82 CALM      30.02F
AUDUBON *      SUNNY     54  46  76 NW3       30.02S
CLARINDA *       N/A     55  50  82 MISG      30.04S
COUNCIL BLFS * SUNNY     55  48  76 CALM      30.03S
CRESTON *      SUNNY     54  48  82 W5        30.03S
HARLAN  *      SUNNY     55  48  76 CALM      30.05F
LAMONI         SUNNY     57  48  72 W6        30.01S
RED OAK *      SUNNY     54  50  87 CALM      30.03S
SHENANDOAH *   SUNNY     54  50  87 CALM      30.04S
$$

IAZ047>049-059>061-072>074-084-271500-
   CENTRAL IOWA

CITY           SKY/WX    TMP DP  RH WIND       PRES   REMARKS
AMES           SUNNY     55  43  63 W12       29.97F
ANKENY *         N/A    N/A N/A N/A MISG        N/A
BOONE *        SUNNY     54  39  58 W12       29.97S
CHARITON *       N/A     57  45  62 NW9       29.99S
DES MOINES     MOSUNNY   56  46  69 W5        29.99S
GRINNELL*      SUNNY     54  43  65 W7        29.97S
KNOXVILLE *    SUNNY     57  43  58 W10       29.97F
MARSHALLTOWN   SUNNY     54  43  66 W7        29.95S
NEWTON *       SUNNY     54  43  66 W7G13     29.97S
PELLA *        SUNNY     57  46  67 W5        29.99S
PERRY *          N/A     56  45  66 W8        29.99S
$$

IAZ004>006-015-016-023>025-035-036-271500-
   NORTH CENTRAL IOWA

CITY           SKY/WX    TMP DP  RH WIND       PRES   REMARKS
ALGONA *       SUNNY     52  39  62 W9        29.96R
CLARION *      SUNNY     52  41  66 W10       29.95S
ESTHERVILLE    SUNNY     52  40  63 W9        29.95S
FORT DODGE *   SUNNY     54  41  62 W6        29.97F
MASON CITY     SUNNY     50  39  66 W13       29.94S
FOREST CITY *    N/A     52  41  66 NW7       29.94S
WEBSTER CITY * SUNNY     52  43  71 W8        29.94F
IOWA FALLS *     N/A     52  42  69 W8        29.96S
$$

IAZ007>011-017>019-026>030-037>042-050>054-066-271500-
   NORTHEAST IOWA

CITY           SKY/WX    TMP DP  RH WIND       PRES   REMARKS
CEDAR RAPIDS   SUNNY     54  43  66 W13       29.93R
CHARLES CITY * SUNNY     50  39  66 W9G16     29.91S
CLINTON *      SUNNY     55  44  66 W10G18    29.90F
DECORAH *      SUNNY     52  39  62 W12G22    29.86R
DUBUQUE        SUNNY     51  41  68 W12       29.89R
MONTICELLO *   SUNNY     54  41  62 W13       29.90S
OELWEIN *      SUNNY     52  41  66 W13       29.91S
WATERLOO       SUNNY     53  40  61 W8G18     29.92S
$$

IAZ064-065-067-068-078-271500-
   EAST CENTRAL IOWA

CITY           SKY/WX    TMP DP  RH WIND       PRES   REMARKS
DAVENPORT      SUNNY     56  41  57 W9        29.92S
IOWA CITY      SUNNY     56  43  61 W9        29.95S
MT. PLEASANT * SUNNY     58  47  65 W8        29.96F
MUSCATINE *    SUNNY     59  41  51 W9        29.94S
QUAD CITIES    SUNNY     58  44  60 W12       29.92S
$$

IAZ062-063-075>077-085>089-095>099-271500-
   SOUTHEAST IOWA

CITY           SKY/WX    TMP DP  RH WIND       PRES   REMARKS
BURLINGTON     SUNNY     58  46  64 NW10      29.95S
FAIRFIELD *    SUNNY     55  45  67 W8        29.96F
FORT MADISON * SUNNY     61  45  55 NW8       29.96F
KEOKUK *       SUNNY     57  46  67 W6        29.97R
OSKALOOSA *      N/A     56  44  65 W9        29.98S
CENTERVILLE *    N/A     59  43  55 NW3       30.00S
OTTUMWA        SUNNY     55  45  68 W9        29.97F
WASHINGTON *     N/A    N/A N/A N/A MISG        N/A
$$

ABBREVIATIONS USED IN REMARKS
   TC - TEMPERATURES IN CELSIUS
  WCI - WIND CHILL INDEX
   HX - HEAT INDEX
  VSB - VISIBILITY
$$





USA.gov is the U.S. government's official web portal to all federal, state and local government web resources and services.